TimeEDT,TemperatureF,Dew PointF,Humidity,Sea Level PressureIn,VisibilityMPH,Wind Direction,Wind SpeedMPH,Gust SpeedMPH,PrecipitationIn,Events,Conditions,WindDirDegrees,DateUTC
12:53 AM,73.9,73.0,97,30.10,10.0,ESE,4.6,-,N/A,,Partly Cloudy,120,2013-07-03 04:53:00
1:53 AM,73.9,73.0,97,30.10,10.0,Calm,Calm,-,N/A,,Scattered Clouds,0,2013-07-03 05:53:00
2:53 AM,73.9,73.0,97,30.08,10.0,Calm,Calm,-,N/A,,Mostly Cloudy,0,2013-07-03 06:53:00
3:53 AM,73.9,73.0,97,30.08,10.0,Calm,Calm,-,N/A,,Mostly Cloudy,0,2013-07-03 07:53:00
4:53 AM,73.9,73.0,97,30.08,10.0,East,3.5,-,N/A,,Scattered Clouds,100,2013-07-03 08:53:00
5:53 AM,75.0,73.9,96,30.09,10.0,SE,4.6,-,N/A,,Mostly Cloudy,140,2013-07-03 09:53:00
6:53 AM,73.9,73.9,100,30.10,10.0,SE,3.5,-,N/A,,Mostly Cloudy,130,2013-07-03 10:53:00
7:53 AM,75.9,75.0,97,30.12,10.0,SE,4.6,-,N/A,,Mostly Cloudy,130,2013-07-03 11:53:00
8:53 AM,79.0,75.9,90,30.13,10.0,SE,5.8,-,N/A,,Mostly Cloudy,140,2013-07-03 12:53:00
9:23 AM,80.6,75.2,84,30.13,10.0,SE,8.1,-,N/A,,Mostly Cloudy,140,2013-07-03 13:23:00
9:53 AM,82.9,75.9,79,30.13,10.0,SE,8.1,17.3,N/A,,Scattered Clouds,130,2013-07-03 13:53:00
10:53 AM,86.0,75.0,70,30.13,10.0,SSE,10.4,-,N/A,,Scattered Clouds,150,2013-07-03 14:53:00
11:53 AM,88.0,75.0,65,30.12,10.0,ESE,12.7,-,0.00,Rain,Light Rain,120,2013-07-03 15:53:00
12:53 PM,90.0,73.9,59,30.11,10.0,SSE,16.1,20.7,0.00,,Mostly Cloudy,150,2013-07-03 16:53:00
1:10 PM,80.6,75.2,84,30.12,8.0,SE,12.7,-,0.09,Rain-Thunderstorm,Light Thunderstorms and Rain,130,2013-07-03 17:10:00
1:53 PM,80.1,75.9,87,30.12,8.0,South,8.1,-,0.09,Rain-Thunderstorm,Light Thunderstorms and Rain,170,2013-07-03 17:53:00
2:07 PM,75.2,71.6,89,30.13,2.0,South,16.1,39.1,0.08,Rain-Thunderstorm,Thunderstorms and Rain,170,2013-07-03 18:07:00
2:09 PM,75.2,71.6,89,30.13,0.5,SSE,15.0,39.1,0.14,Rain-Thunderstorm,Thunderstorms and Rain,160,2013-07-03 18:09:00
2:13 PM,75.2,71.6,89,30.12,4.0,SE,9.2,39.1,0.23,Rain-Thunderstorm,Thunderstorms and Rain,130,2013-07-03 18:13:00
2:23 PM,75.2,75.2,100,30.11,5.0,East,9.2,-,0.28,Rain-Thunderstorm,Thunderstorms and Rain,100,2013-07-03 18:23:00
2:45 PM,78.8,77.0,94,30.10,10.0,ESE,6.9,-,0.29,Rain,Light Rain,110,2013-07-03 18:45:00
2:53 PM,79.0,78.1,97,30.09,10.0,ESE,4.6,-,0.29,Rain,Light Rain,110,2013-07-03 18:53:00
3:02 PM,78.8,77.0,94,30.10,2.0,SSE,9.2,-,0.01,Rain-Thunderstorm,Light Thunderstorms and Rain,150,2013-07-03 19:02:00
3:12 PM,78.8,75.2,89,30.11,-9999.0,ESE,15.0,-,0.09,Rain-Thunderstorm,Light Thunderstorms and Rain,110,2013-07-03 19:12:00
3:20 PM,77.0,73.4,89,30.10,2.0,ESE,9.2,20.7,0.09,Rain-Thunderstorm,Light Thunderstorms and Rain,120,2013-07-03 19:20:00
3:35 PM,73.4,71.6,94,30.10,6.0,East,8.1,-,0.14,Rain-Thunderstorm,Thunderstorms and Rain,90,2013-07-03 19:35:00
3:53 PM,75.9,73.9,94,30.09,10.0,East,10.4,-,0.15,Rain-Thunderstorm,Thunderstorms and Rain,90,2013-07-03 19:53:00
4:22 PM,78.8,75.2,89,30.09,10.0,East,5.8,-,0.01,,Mostly Cloudy,100,2013-07-03 20:22:00
4:53 PM,81.0,75.9,85,30.07,10.0,East,5.8,-,0.01,,Mostly Cloudy,90,2013-07-03 20:53:00
5:53 PM,82.0,77.0,85,30.08,10.0,SE,5.8,-,N/A,,Overcast,130,2013-07-03 21:53:00
6:18 PM,80.6,77.0,89,30.09,10.0,East,6.9,-,0.00,Rain,Light Rain,100,2013-07-03 22:18:00
6:53 PM,81.0,75.9,85,30.09,10.0,SE,5.8,-,0.00,,Overcast,130,2013-07-03 22:53:00
7:53 PM,80.1,75.0,85,30.10,10.0,ESE,5.8,-,N/A,,Overcast,120,2013-07-03 23:53:00
8:21 PM,78.8,71.6,78,30.13,10.0,SSW,12.7,21.9,N/A,,Overcast,210,2013-07-04 00:21:00
8:29 PM,75.2,71.6,89,30.13,5.0,South,17.3,26.5,0.00,Rain,Light Rain,180,2013-07-04 00:29:00
8:40 PM,73.4,71.6,94,30.14,3.0,SSE,9.2,-,0.11,Rain,Rain,160,2013-07-04 00:40:00
8:42 PM,73.4,71.6,94,30.14,2.5,SSE,13.8,18.4,0.12,Rain,Rain,150,2013-07-04 00:42:00
8:53 PM,73.0,71.1,93,30.13,2.5,SE,5.8,17.3,0.21,Rain,Heavy Rain,130,2013-07-04 00:53:00
9:15 PM,73.4,71.6,94,30.13,10.0,East,4.6,-,0.00,,Overcast,100,2013-07-04 01:15:00
9:53 PM,73.9,73.0,97,30.14,10.0,SSE,3.5,-,0.00,,Mostly Cloudy,150,2013-07-04 01:53:00
10:53 PM,73.9,73.0,97,30.15,10.0,Calm,Calm,-,N/A,,Mostly Cloudy,0,2013-07-04 02:53:00
11:53 PM,73.9,73.0,97,30.15,10.0,ESE,3.5,-,N/A,,Scattered Clouds,110,2013-07-04 03:53:00